Wetterdaten: aktuell Sonntag, 29.01.2023 03:50
Datum Zeit Temperatur Bodentemp. Luftfeuchte Luftdruck Niederschlag Windgeschw. Windrichtung Windrichtung Sonnenschein Nieder.dauer Evapotrans. Solarstrahl. Taupunkt Windchill Windböen
29.01.2023 03:50 3,5 °C 3,3 °C 98 % 1024,4 hPa 0,0 l/m² 1,8 km/h (1 Bft) W-SW 247 ° 0 min 15 min 0 mm 0 W/m² 3,2 °C 3,5 °C 5,4 km/h (1 Bft)
29.01.2023 02:50 3,3 °C 3,3 °C 98 % 1025,2 hPa 0,2 l/m² 9,0 km/h (2 Bft) SW 225 ° 0 min 60 min 0 mm 0 W/m² 3,0 °C 0,9 °C 12,6 km/h (3 Bft)
29.01.2023 01:50 3,1 °C 2,8 °C 98 % 1025,6 hPa 0,2 l/m² 9,0 km/h (2 Bft) SW 225 ° 0 min 13 min 0 mm 0 W/m² 2,8 °C 0,6 °C 12,6 km/h (3 Bft)
29.01.2023 00:50 3,1 °C 2,8 °C 98 % 1025,8 hPa 0,0 l/m² 7,2 km/h (2 Bft) W-SW 247 ° 0 min 0 min 0 mm 0 W/m² 2,8 °C 1,1 °C 14,4 km/h (3 Bft)
28.01.2023 23:50 2,9 °C 2,8 °C 98 % 1025,5 hPa 0,2 l/m² 5,4 km/h (1 Bft) SW 225 ° 0 min 36 min 0 mm 0 W/m² 2,6 °C 1,5 °C 9,0 km/h (2 Bft)
28.01.2023 22:50 2,7 °C 2,8 °C 97 % 1025,9 hPa 0,0 l/m² 5,4 km/h (1 Bft) W 270 ° 0 min 3 min 0 mm 0 W/m² 2,3 °C 1,3 °C 10,8 km/h (2 Bft)
28.01.2023 21:50 2,3 °C 2,2 °C 97 % 1026,3 hPa 0,2 l/m² 9,0 km/h (2 Bft) SW 225 ° 0 min 27 min 0 mm 0 W/m² 1,9 °C -0,3 °C 12,6 km/h (3 Bft)
28.01.2023 20:50 2,0 °C 1,7 °C 95 % 1026,8 hPa 0,0 l/m² 5,4 km/h (1 Bft) S-SW 202 ° 0 min 2 min 0 mm 0 W/m² 1,3 °C 0,5 °C 12,6 km/h (3 Bft)
28.01.2023 19:50 1,8 °C 1,7 °C 93 % 1026,9 hPa 0,0 l/m² 7,2 km/h (2 Bft) SW 225 ° 0 min 0 min 0 mm 0 W/m² 0,8 °C -0,4 °C 12,6 km/h (3 Bft)
28.01.2023 18:50 1,5 °C 1,1 °C 92 % 1027,1 hPa 0,0 l/m² 10,8 km/h (2 Bft) SW 225 ° 0 min 7 min 0 mm 0 W/m² 0,3 °C -1,7 °C 14,4 km/h (3 Bft)
28.01.2023 17:50 1,4 °C 1,1 °C 91 % 1027,2 hPa 0,0 l/m² 7,2 km/h (2 Bft) S-SW 202 ° 0 min 2 min 0 mm 0 W/m² 0,1 °C -0,8 °C 12,6 km/h (3 Bft)
28.01.2023 16:50 1,4 °C 1,1 °C 90 % 1027,3 hPa 0,0 l/m² 9,0 km/h (2 Bft) SW 225 ° 0 min 3 min 0 mm 5 W/m² -0,1 °C -1,4 °C 12,6 km/h (3 Bft)
28.01.2023 15:50 1,5 °C 1,1 °C 88 % 1027,4 hPa 0,0 l/m² 1,8 km/h (1 Bft) SW 225 ° 0 min 8 min 0 mm 37 W/m² -0,3 °C 1,5 °C 3,6 km/h (1 Bft)
28.01.2023 14:50 1,4 °C 1,7 °C 85 % 1027,5 hPa 0,0 l/m² 5,4 km/h (1 Bft) W-SW 247 ° 0 min 0 min 0 mm 62 W/m² -0,8 °C -0,2 °C 12,6 km/h (3 Bft)
28.01.2023 13:50 1,6 °C 2,2 °C 85 % 1027,5 hPa 0,0 l/m² 10,8 km/h (2 Bft) S-SW 202 ° 22 min 0 min 0 mm 153 W/m² -0,6 °C -1,6 °C 16,1 km/h (3 Bft)
28.01.2023 12:50 0,9 °C 1,7 °C 86 % 1028,0 hPa 0,0 l/m² 5,4 km/h (1 Bft) SW 225 ° 12 min 0 min 0 mm 167 W/m² -1,2 °C -0,7 °C 10,8 km/h (2 Bft)
28.01.2023 11:50 0,2 °C 1,1 °C 87 % 1028,4 hPa 0,0 l/m² 10,8 km/h (2 Bft) SW 225 ° 0 min 0 min 0 mm 100 W/m² -1,7 °C -3,3 °C 16,1 km/h (3 Bft)
28.01.2023 10:50 -0,7 °C 0,0 °C 91 % 1029,0 hPa 0,0 l/m² 3,6 km/h (1 Bft) SW 225 ° 36 min 0 min 0 mm 120 W/m² -2,0 °C -0,7 °C 7,2 km/h (2 Bft)
28.01.2023 09:50 -2,9 °C -1,1 °C 96 % 1029,4 hPa 0,0 l/m² 1,8 km/h (1 Bft) SW 225 ° 2 min 0 min 0 mm 104 W/m² -3,4 °C -2,9 °C 7,2 km/h (2 Bft)
28.01.2023 08:50 -4,1 °C -3,9 °C 93 % 1029,0 hPa 0,0 l/m² 0,0 km/h (0 Bft) N 0 ° 7 min 0 min 0 mm 19 W/m² -5,1 °C -4,1 °C 0,0 km/h (0 Bft)
28.01.2023 07:50 -3,7 °C -4,4 °C 93 % 1028,9 hPa 0,0 l/m² 0,0 km/h (0 Bft) N 0 ° 0 min 0 min 0 mm 0 W/m² -4,7 °C -3,7 °C 0,0 km/h (0 Bft)
28.01.2023 06:50 -3,3 °C -3,3 °C 92 % 1028,4 hPa 0,0 l/m² 0,0 km/h (0 Bft) O 90 ° 0 min 0 min 0 mm 0 W/m² -4,4 °C -3,3 °C 1,8 km/h (1 Bft)
28.01.2023 05:50 -2,8 °C -3,3 °C 91 % 1029,0 hPa 0,0 l/m² 0,0 km/h (0 Bft) N 0 ° 0 min 0 min 0 mm 0 W/m² -4,1 °C -2,8 °C 0,0 km/h (0 Bft)
28.01.2023 04:50 -2,2 °C -2,8 °C 91 % 1029,0 hPa 0,0 l/m² 0,0 km/h (0 Bft) N 0 ° 0 min 0 min 0 mm 0 W/m² -3,5 °C -2,2 °C 0,0 km/h (0 Bft)
28.01.2023 04:00 -1,6 °C -2,8 °C 90 % 1028,9 hPa 0,0 l/m² 0,0 km/h (0 Bft) N 0 ° 0 min 0 min 0 mm 0 W/m² -3,0 °C -1,6 °C 0,0 km/h (0 Bft)
_ Min-Zeit 08:54 07:25 13:45 03:45 - 04:00 - - - - - - 08:59 09:30 04:00
Minimum _ -4,2 °C -4,4 °C 84 % 1024,4 hPa - 0,0 km/h (0 Bft) - - - - - - -5,2 °C -6,0 °C 0,0 km/h (0 Bft)
_ Max-Zeit 03:42 02:04 23:07 10:00 21:07 14:18 - - 08:28 15:32 11:00 13:34 03:46 03:50 12:52
Maximum _ 3,5 °C 3,3 °C 98 % 1029,5 hPa 0,2 l/m² 14,4 km/h
SW (3 Bft)
- - 1 min 1 min 0 mm 294 W/m² 3,2 °C 3,5 °C 21,5 km/h
S-SW (4 Bft)
Durchschnitt _ 0,4 °C 0,3 °C 92 % 1027,5 hPa #0,8 l/m² 5,3 km/h (1 Bft) SW - #0 min. #1:28 h #0,000 mm 0 W/m² -0,7 °C -1,1 °C 8,9 km/h (2 Bft)